Notices

What's New in latest Release from April 7th, 2021:

- Updated Glossary, including Speed of Maximum Gust, and Total Hourly Precipitation

- Updated national and regional climate services offices contacts and prices information

- Addition of station inventory lists for 1981-2010, 1971-2000, and 1961-1990 Normals.

If you haven't already, please take our survey and provide feedback about our website: https://eccc.sondage-survey.ca/f/LanguageSelection.aspx?s=442ca660-fcf1-47c0-95a9-59707d6fd709

Hourly Data Report for November 20, 2016

VICTORIA UNIVERSITY CS
BRITISH COLUMBIA

48°27'25.200" N
123°18'16.600" W
60.10 m
1018598
71783
WYJ

Download Data

Hourly Data (November 2016)
Hourly Data Report for November 20, 2016
TIME
LST
Temp Definition
°C
Dew Point Definition
°C
Rel Hum Definition
%
Precip. Amount Definition
mm

Wind Dir Definition
10's deg

Wind Spd Definition
km/h
Visibility Definition
km
Stn Press Definition
kPa
Hmdx Definition


Wind Chill Definition


Weather Definition


00:00 10.1 7.5 84 0.0 13 7   99.47     LegendNANA
01:00 10.5 7.2 80 0.0 12 7   99.45     LegendNANA
02:00 10.4 7.9 84 0.0 14 7   99.49     LegendNANA
03:00 10.6 7.6 82 0.0 13 5   99.45     LegendNANA
04:00 10.8 7.9 82 0.0 13 5   99.42     LegendNANA
05:00 10.7 8.2 84 0.0 14 8   99.46     LegendNANA
06:00 10.6 8.4 86 0.0 15 6   99.47     LegendNANA
07:00 10.5 8.0 85 0.0 14 4   99.50     LegendNANA
08:00 10.2 8.7 90 0.0 15 7   99.52     LegendNANA
09:00 10.3 8.7 89 0.0 15 3   99.54     LegendNANA
10:00 10.5 8.7 89 0.0 10 2   99.55     LegendNANA
11:00 10.4 8.8 90 0.0 14 1   99.57     LegendNANA
12:00 11.5 8.8 84 0.0 35 1   99.55     LegendNANA
13:00 11.7 8.9 83 0.0 6 2   99.56     LegendNANA
14:00 10.9 8.9 88 0.0 15 1   99.59     LegendNANA
15:00 11.5 8.8 84 0.0 9 1   99.62     LegendNANA
16:00 10.9 8.9 88 0.0 23 3   99.69     LegendNANA
17:00 10.2 8.9 92 0.0 13 2   99.72     LegendNANA
18:00 9.6 8.6 94 0.0 10 1   99.78     LegendNANA
19:00 9.3 8.7 96 0.0 14 1   99.82     LegendNANA
20:00 9.8 8.2 89 0.0 21 5   99.91     LegendNANA
21:00 9.6 8.8 94 0.4 18 4   99.98     LegendNANA
22:00 9.5 8.4 93 0.2 23 7   100.03     LegendNANA
23:00 9.1 8.4 95 0.0 23 7   100.07     LegendNANA

Notes on Data Quality.

Legend

  • E = Estimated
  • M = Missing
  • NA = Not Available*
  • [empty] = Indicates an unobserved value
Date modified: